| time (UTC) | temp F | wind direction | speed knots | gust knots | rain 1hr in | rain 24hr in | rain mn in | humidity % | barometer mb |
| 20260506114906 | 64 | 212 | 2.6 | 15.6 | 0.00 | 0.00 | 0.00 | 76 | 1012.7 |
| 20260506113859 | 64 | 194 | 2.6 | 16.5 | 0.00 | 0.00 | 0.00 | 76 | 1012.8 |
| 20260506113354 | 64 | 151 | 3.5 | 14.8 | 0.00 | 0.00 | 0.00 | 76 | 1013.0 |
| 20260506112350 | 64 | 174 | 4.3 | 22.6 | 0.00 | 0.00 | 0.00 | 75 | 1013.3 |
| 20260506111850 | 64 | 184 | 7.0 | 14.8 | 0.00 | 0.00 | 0.00 | 75 | 1013.2 |
| 20260506111350 | 64 | 190 | 7.8 | 14.8 | 0.00 | 0.00 | 0.00 | 75 | 1012.9 |
| 20260506110850 | 64 | 183 | 9.6 | 13.9 | 0.00 | 0.00 | 0.00 | 75 | 1013.0 |
| 20260506110349 | 65 | 189 | 7.8 | 13.9 | 0.00 | 0.00 | 0.00 | 74 | 1012.8 |
| 20260506105850 | 65 | 208 | 4.3 | 11.3 | 0.00 | 0.00 | 0.00 | 74 | 1012.9 |
| 20260506105346 | 64 | 241 | 4.3 | 20.9 | 0.00 | 0.00 | 0.00 | 74 | 1012.9 |
| 20260506104846 | 64 | 175 | 9.6 | 20.9 | 0.00 | 0.00 | 0.00 | 75 | 1012.8 |
| 20260506103844 | 64 | 124 | 5.2 | 12.2 | 0.00 | 0.00 | 0.00 | 75 | 1012.8 |
| 20260506103344 | 64 | 188 | 6.1 | 13.0 | 0.00 | 0.00 | 0.00 | 74 | 1012.6 |
| 20260506102844 | 64 | 191 | 6.1 | 13.0 | 0.00 | 0.00 | 0.00 | 76 | 1012.5 |
| 20260506101848 | 64 | 210 | 6.1 | 13.0 | 0.00 | 0.00 | 0.00 | 76 | 1012.4 |
| 20260506100841 | 64 | 231 | 1.7 | 13.9 | 0.00 | 0.00 | 0.00 | 75 | 1012.3 |
| 20260506100341 | 64 | 248 | 8.7 | 13.9 | 0.00 | 0.00 | 0.00 | 75 | 1012.3 |
| 20260506095842 | 64 | 192 | 6.1 | 13.9 | 0.00 | 0.00 | 0.00 | 75 | 1012.1 |
| 20260506095351 | 64 | 258 | 10.4 | 14.8 | 0.00 | 0.00 | 0.00 | 75 | 1012.2 |
| 20260506094840 | 64 | 191 | 7.8 | 18.2 | 0.00 | 0.00 | 0.00 | 74 | 1012.0 |
| 20260506094339 | 64 | 187 | 5.2 | 19.1 | 0.00 | 0.00 | 0.00 | 74 | 1012.1 |
| 20260506093843 | 64 | 202 | 11.3 | 19.1 | 0.00 | 0.00 | 0.00 | 74 | 1011.9 |
| 20260506093338 | 64 | 170 | 1.7 | 15.6 | 0.00 | 0.00 | 0.00 | 74 | 1011.8 |
| 20260506092839 | 64 | 181 | 7.8 | 15.6 | 0.00 | 0.00 | 0.00 | 74 | 1011.9 |
| 20260506092339 | 64 | 194 | 5.2 | 13.9 | 0.00 | 0.00 | 0.00 | 74 | 1011.9 |
| 20260506091839 | 64 | 188 | 3.5 | 15.6 | 0.00 | 0.00 | 0.00 | 74 | 1011.5 |
| 20260506091339 | 64 | 181 | 8.7 | 16.5 | 0.00 | 0.00 | 0.00 | 74 | 1011.7 |
| 20260506090839 | 64 | 250 | 7.8 | 16.5 | 0.00 | 0.00 | 0.00 | 74 | 1011.5 |
| 20260506084338 | 64 | 274 | 5.2 | 17.4 | 0.00 | 0.00 | 0.00 | 73 | 1011.5 |
| 20260506083320 | 64 | 269 | 7.8 | 14.8 | 0.00 | 0.00 | 0.00 | 73 | 1011.6 |
| 20260506081818 | 63 | 283 | 1.7 | 18.2 | 0.00 | 0.00 | 0.00 | 74 | 1011.6 |
| 20260506081320 | 63 | 147 | 4.3 | 15.6 | 0.00 | 0.00 | 0.00 | 74 | 1011.5 |
| 20260506080818 | 63 | 203 | 5.2 | 14.8 | 0.00 | 0.00 | 0.00 | 74 | 1011.5 |
| 20260506080319 | 63 | 187 | 9.6 | 16.5 | 0.00 | 0.00 | 0.00 | 75 | 1011.7 |
| 20260506073310 | 62 | 195 | 6.1 | 13.9 | 0.00 | 0.00 | 0.00 | 76 | 1011.4 |
| 20260506072308 | 61 | 195 | 5.2 | 15.6 | 0.00 | 0.00 | 0.00 | 76 | 1011.5 |
| 20260506071307 | 61 | 203 | 2.6 | 12.2 | 0.00 | 0.00 | 0.00 | 76 | 1011.6 |
| 20260506070805 | 61 | 208 | 3.5 | 10.4 | 0.00 | 0.00 | 0.00 | 76 | 1011.5 |
| 20260506070310 | 61 | 206 | 6.1 | 13.0 | 0.00 | 0.00 | 0.00 | 76 | 1011.5 |
| 20260506062253 | 60 | 183 | 7.8 | 12.2 | 0.00 | 0.00 | 0.00 | 74 | 1011.2 |
| 20260506061751 | 60 | 164 | 7.8 | 13.0 | 0.00 | 0.00 | 0.00 | 73 | 1011.4 |
| 20260506061251 | 60 | 242 | 2.6 | 13.0 | 0.00 | 0.00 | 0.00 | 72 | 1011.4 |
| 20260506060237 | 60 | 276 | 3.5 | 13.0 | 0.00 | 0.00 | 0.00 | 71 | 1011.4 |
| 20260506051233 | 59 | 172 | 5.2 | 16.5 | 0.00 | 0.00 | 0.00 | 71 | 1011.5 |
| 20260506050733 | 60 | 190 | 3.5 | 16.5 | 0.00 | 0.00 | 0.00 | 70 | 1011.5 |
| 20260506050233 | 59 | 168 | 4.3 | 11.3 | 0.00 | 0.00 | 0.00 | 70 | 1011.4 |
| 20260506044220 | 59 | 335 | 2.6 | 9.6 | 0.00 | 0.00 | 0.00 | 70 | 1011.6 |
| 20260506043220 | 58 | 280 | 5.2 | 13.9 | 0.00 | 0.00 | 0.00 | 70 | 1011.5 |
| 20260506042717 | 58 | 259 | 6.1 | 9.6 | 0.00 | 0.00 | 0.00 | 70 | 1011.7 |
| 20260506042216 | 58 | 165 | 6.1 | 9.6 | 0.00 | 0.00 | 0.00 | 71 | 1011.6 |
| 20260506041717 | 58 | 192 | 3.5 | 9.6 | 0.00 | 0.00 | 0.00 | 71 | 1011.7 |
| 20260506040715 | 58 | 235 | 4.3 | 10.4 | 0.00 | 0.00 | 0.00 | 70 | 1011.6 |
| 20260506040228 | 58 | 281 | 3.5 | 9.6 | 0.00 | 0.00 | 0.00 | 70 | 1011.7 |
| 20260506035214 | 58 | 207 | 5.2 | 10.4 | 0.00 | 0.00 | 0.00 | 70 | 1011.7 |
| 20260506034714 | 58 | 264 | 2.6 | 11.3 | 0.00 | 0.00 | 0.00 | 70 | 1011.8 |
| 20260506034213 | 58 | 243 | 8.7 | 11.3 | 0.00 | 0.00 | 0.00 | 70 | 1011.7 |
| 20260506032710 | 58 | 119 | 5.2 | 13.9 | 0.00 | 0.00 | 0.00 | 70 | 1011.7 |
| 20260506032210 | 58 | 237 | 13.0 | 13.0 | 0.00 | 0.00 | 0.00 | 70 | 1011.8 |
| 20260506031710 | 57 | 181 | 5.2 | 10.4 | 0.00 | 0.00 | 0.00 | 71 | 1011.7 |
| 20260506031216 | 57 | 149 | 5.2 | 10.4 | 0.00 | 0.00 | 0.00 | 70 | 1011.9 |
| 20260506030709 | 57 | 168 | 2.6 | 12.2 | 0.00 | 0.00 | 0.00 | 70 | 1012.0 |
| 20260506030210 | 58 | 241 | 7.8 | 13.0 | 0.00 | 0.00 | 0.00 | 69 | 1011.9 |
| 20260506025710 | 58 | 222 | 7.8 | 13.0 | 0.00 | 0.00 | 0.00 | 69 | 1011.7 |
| 20260506025208 | 58 | 171 | 6.1 | 15.6 | 0.00 | 0.00 | 0.00 | 69 | 1011.6 |
| 20260506024708 | 58 | 211 | 2.6 | 15.6 | 0.00 | 0.00 | 0.00 | 68 | 1011.9 |
| 20260506023708 | 59 | 216 | 2.6 | 14.8 | 0.00 | 0.00 | 0.00 | 67 | 1011.6 |
| 20260506023209 | 59 | 261 | 7.0 | 19.1 | 0.00 | 0.00 | 0.00 | 67 | 1011.7 |
| 20260506022708 | 59 | 205 | 7.0 | 19.1 | 0.00 | 0.00 | 0.00 | 66 | 1011.5 |
| 20260506022207 | 59 | 192 | 2.6 | 14.8 | 0.00 | 0.00 | 0.00 | 66 | 1011.4 |
| 20260506021707 | 59 | 253 | 5.2 | 14.8 | 0.00 | 0.00 | 0.00 | 66 | 1011.3 |
| 20260506021204 | 59 | 251 | 8.7 | 17.4 | 0.00 | 0.00 | 0.00 | 65 | 1010.9 |
| 20260506020703 | 59 | 190 | 9.6 | 17.4 | 0.00 | 0.00 | 0.00 | 66 | 1010.8 |
| 20260506020201 | 59 | 170 | 11.3 | 13.0 | 0.00 | 0.00 | 0.00 | 67 | 1011.0 |
| 20260506015659 | 59 | 251 | 6.1 | 12.2 | 0.00 | 0.00 | 0.00 | 67 | 1010.7 |
| 20260506015159 | 59 | 151 | 4.3 | 13.0 | 0.00 | 0.00 | 0.00 | 66 | 1010.8 |
| 20260506014157 | 59 | 225 | 1.7 | 16.5 | 0.00 | 0.00 | 0.00 | 66 | 1010.7 |
| 20260506013657 | 59 | 174 | 7.0 | 13.9 | 0.00 | 0.00 | 0.00 | 66 | 1010.8 |
| 20260506013156 | 60 | 173 | 6.1 | 12.2 | 0.00 | 0.00 | 0.00 | 65 | 1010.7 |
| 20260506012642 | 59 | 194 | 7.0 | 11.3 | 0.00 | 0.00 | 0.00 | 66 | 1010.8 |
| 20260506011640 | 60 | 198 | 2.6 | 11.3 | 0.00 | 0.00 | 0.00 | 65 | 1010.9 |
| 20260506011138 | 60 | 182 | 4.3 | 12.2 | 0.00 | 0.00 | 0.00 | 65 | 1011.0 |
| 20260506010638 | 60 | 239 | 7.8 | 12.2 | 0.00 | 0.00 | 0.00 | 64 | 1010.9 |
| 20260506010138 | 60 | 215 | 5.2 | 16.5 | 0.00 | 0.00 | 0.00 | 64 | 1010.9 |
| 20260506005138 | 61 | 281 | 5.2 | 13.9 | 0.00 | 0.00 | 0.00 | 63 | 1010.9 |
| 20260506004639 | 61 | 230 | 8.7 | 16.5 | 0.00 | 0.00 | 0.00 | 63 | 1010.7 |
| 20260506003636 | 61 | 159 | 9.6 | 18.2 | 0.00 | 0.00 | 0.00 | 63 | 1010.7 |
| 20260506003131 | 61 | 185 | 1.7 | 18.2 | 0.00 | 0.00 | 0.00 | 62 | 1010.7 |
| 20260506002630 | 61 | 188 | 7.0 | 10.4 | 0.00 | 0.00 | 0.00 | 62 | 1010.2 |
| 20260506001624 | 62 | 188 | 7.8 | 14.8 | 0.00 | 0.00 | 0.00 | 62 | 1010.2 |
| 20260506001121 | 61 | 160 | 5.2 | 15.6 | 0.00 | 0.00 | 0.00 | 62 | 1010.1 |
| 20260506000621 | 62 | 169 | 4.3 | 15.6 | 0.00 | 0.00 | 0.00 | 62 | 1010.0 |
| 20260506000120 | 62 | 184 | 7.8 | 15.6 | 0.00 | 0.00 | 0.00 | 61 | 1010.0 |
| 20260505235619 | 62 | 201 | 5.2 | 14.8 | 0.00 | 0.00 | 0.00 | 60 | 1009.7 |
| 20260505235112 | 62 | 173 | 7.8 | 13.0 | 0.00 | 0.00 | 0.00 | 60 | 1009.8 |
| 20260505234609 | 62 | 145 | 7.0 | 13.9 | 0.00 | 0.00 | 0.00 | 60 | 1009.5 |
| 20260505234108 | 63 | 181 | 7.8 | 13.9 | 0.00 | 0.00 | 0.00 | 59 | 1009.4 |
| 20260505233608 | 63 | 152 | 4.3 | 15.6 | 0.00 | 0.00 | 0.00 | 58 | 1009.3 |
| 20260505233108 | 64 | 200 | 3.5 | 15.6 | 0.00 | 0.00 | 0.00 | 58 | 1009.2 |
| 20260505232608 | 63 | 181 | 10.4 | 12.2 | 0.00 | 0.00 | 0.00 | 58 | 1009.1 |
| 20260505231604 | 64 | 240 | 3.5 | 18.2 | 0.00 | 0.00 | 0.00 | 57 | 1009.1 |
| 20260505231101 | 65 | 189 | 7.8 | 18.2 | 0.00 | 0.00 | 0.00 | 56 | 1009.0 |
| 20260505230559 | 65 | 187 | 6.1 | 14.8 | 0.00 | 0.00 | 0.00 | 56 | 1008.9 |
| 20260505230107 | 65 | 200 | 5.2 | 14.8 | 0.00 | 0.00 | 0.00 | 54 | 1008.9 |
| 20260505225055 | 66 | 186 | 6.1 | 15.6 | 0.00 | 0.00 | 0.00 | 53 | 1008.7 |
| 20260505224553 | 66 | 219 | 3.5 | 12.2 | 0.00 | 0.00 | 0.00 | 53 | 1008.6 |
| 20260505224050 | 67 | 166 | 4.3 | 15.6 | 0.00 | 0.00 | 0.00 | 52 | 1008.5 |
| 20260505223049 | 67 | 177 | 7.8 | 14.8 | 0.00 | 0.00 | 0.00 | 51 | 1008.6 |
| 20260505222549 | 68 | 145 | 7.8 | 17.4 | 0.00 | 0.00 | 0.00 | 51 | 1008.7 |
| 20260505222044 | 69 | 150 | 5.2 | 17.4 | 0.00 | 0.00 | 0.00 | 50 | 1008.5 |
| 20260505221544 | 69 | 158 | 10.4 | 15.6 | 0.00 | 0.00 | 0.00 | 48 | 1008.3 |
| 20260505220533 | 70 | 197 | 7.0 | 13.0 | 0.00 | 0.00 | 0.00 | 48 | 1008.0 |
| 20260505215527 | 70 | 166 | 7.0 | 16.5 | 0.00 | 0.00 | 0.00 | 46 | 1007.9 |
| 20260505215023 | 70 | 175 | 9.6 | 22.6 | 0.00 | 0.00 | 0.00 | 46 | 1007.8 |
| 20260505214521 | 70 | 207 | 7.0 | 22.6 | 0.00 | 0.00 | 0.00 | 45 | 1007.6 |
| 20260505214020 | 71 | 187 | 7.0 | 22.6 | 0.00 | 0.00 | 0.00 | 45 | 1007.9 |
| 20260505212014 | 73 | 208 | 3.5 | 17.4 | 0.00 | 0.00 | 0.00 | 44 | 1007.3 |
| 20260505211514 | 73 | 163 | 7.8 | 17.4 | 0.00 | 0.00 | 0.00 | 40 | 1007.4 |
| 20260505210512 | 73 | 193 | 3.5 | 20.9 | 0.00 | 0.00 | 0.00 | 42 | 1007.6 |
| 20260505210013 | 73 | 176 | 8.7 | 20.9 | 0.00 | 0.00 | 0.00 | 40 | 1007.7 |
| 20260505205513 | 73 | 165 | 9.6 | 18.2 | 0.00 | 0.00 | 0.00 | 41 | 1007.4 |
| 20260505205011 | 73 | 180 | 11.3 | 19.1 | 0.00 | 0.00 | 0.00 | 40 | 1007.4 |
| 20260505204008 | 73 | 257 | 6.1 | 17.4 | 0.00 | 0.00 | 0.00 | 40 | 1007.6 |
| 20260505203507 | 74 | 192 | 6.1 | 18.2 | 0.00 | 0.00 | 0.00 | 39 | 1007.7 |
| 20260505203008 | 74 | 155 | 8.7 | 18.2 | 0.00 | 0.00 | 0.00 | 40 | 1007.7 |
| 20260505202506 | 75 | 202 | 3.5 | 16.5 | 0.00 | 0.00 | 0.00 | 41 | 1007.4 |
| 20260505202004 | 75 | 190 | 9.6 | 23.5 | 0.00 | 0.00 | 0.00 | 39 | 1007.5 |
| 20260505201002 | 75 | 186 | 7.0 | 16.5 | 0.00 | 0.00 | 0.00 | 37 | 1007.6 |
| 20260505200503 | 75 | 187 | 5.2 | 25.2 | 0.00 | 0.00 | 0.00 | 39 | 1007.5 |
| 20260505200002 | 74 | 260 | 3.5 | 25.2 | 0.00 | 0.00 | 0.00 | 39 | 1007.7 |
| 20260505195502 | 74 | 192 | 5.2 | 18.2 | 0.00 | 0.00 | 0.00 | 38 | 1007.8 |
| 20260505195002 | 74 | 199 | 2.6 | 17.4 | 0.00 | 0.00 | 0.00 | 40 | 1007.5 |
| 20260505194502 | 75 | 213 | 8.7 | 17.4 | 0.00 | 0.00 | 0.00 | 38 | 1008.1 |
| 20260505193954 | 75 | 171 | 9.6 | 16.5 | 0.00 | 0.00 | 0.00 | 38 | 1008.1 |
| 20260505193446 | 76 | 239 | 7.8 | 18.2 | 0.00 | 0.00 | 0.00 | 39 | 1008.1 |
| 20260505192945 | 75 | 180 | 10.4 | 19.1 | 0.00 | 0.00 | 0.00 | 37 | 1008.0 |
| 20260505192445 | 75 | 155 | 5.2 | 19.1 | 0.00 | 0.00 | 0.00 | 38 | 1007.8 |
| 20260505190944 | 75 | 220 | 6.1 | 23.5 | 0.00 | 0.00 | 0.00 | 38 | 1008.2 |
| 20260505190443 | 75 | 220 | 7.0 | 26.1 | 0.00 | 0.00 | 0.00 | 36 | 1008.3 |
| 20260505185941 | 75 | 187 | 7.8 | 26.1 | 0.00 | 0.00 | 0.00 | 36 | 1008.5 |
| 20260505185439 | 75 | 236 | 8.7 | 21.7 | 0.00 | 0.00 | 0.00 | 36 | 1008.6 |
| 20260505184939 | 75 | 218 | 10.4 | 26.9 | 0.00 | 0.00 | 0.00 | 35 | 1008.6 |
| 20260505184438 | 75 | 198 | 6.1 | 26.9 | 0.00 | 0.00 | 0.00 | 37 | 1008.8 |
| 20260505183936 | 75 | 196 | 6.1 | 24.3 | 0.00 | 0.00 | 0.00 | 36 | 1008.6 |
| 20260505182930 | 75 | 172 | 8.7 | 30.4 | 0.00 | 0.00 | 0.00 | 34 | 1008.7 |
| 20260505182430 | 75 | 191 | 7.0 | 30.4 | 0.00 | 0.00 | 0.00 | 36 | 1009.1 |
| 20260505181932 | 75 | 173 | 8.7 | 20.9 | 0.00 | 0.00 | 0.00 | 34 | 1008.9 |
| 20260505181430 | 74 | 177 | 13.0 | 20.0 | 0.00 | 0.00 | 0.00 | 34 | 1009.0 |
| 20260505180931 | 75 | 187 | 9.6 | 24.3 | 0.00 | 0.00 | 0.00 | 34 | 1009.1 |
| 20260505180430 | 74 | 165 | 9.6 | 24.3 | 0.00 | 0.00 | 0.00 | 34 | 1009.0 |
| 20260505175928 | 75 | 223 | 2.6 | 18.2 | 0.00 | 0.00 | 0.00 | 37 | 1009.2 |
| 20260505175426 | 75 | 259 | 5.2 | 18.2 | 0.00 | 0.00 | 0.00 | 35 | 1009.2 |
| 20260505173926 | 75 | 232 | 9.6 | 19.1 | 0.00 | 0.00 | 0.00 | 33 | 1009.6 |
| 20260505172427 | 74 | 180 | 5.2 | 18.2 | 0.00 | 0.00 | 0.00 | 33 | 1009.7 |
| 20260505171925 | 75 | 189 | 9.6 | 20.0 | 0.00 | 0.00 | 0.00 | 33 | 1009.8 |
| 20260505171425 | 75 | 186 | 8.7 | 20.0 | 0.00 | 0.00 | 0.00 | 32 | 1009.6 |
| 20260505170924 | 74 | 185 | 8.7 | 19.1 | 0.00 | 0.00 | 0.00 | 32 | 1009.6 |
| 20260505170425 | 74 | 198 | 7.8 | 18.2 | 0.00 | 0.00 | 0.00 | 34 | 1009.6 |
| 20260505165925 | 74 | 177 | 7.8 | 19.1 | 0.00 | 0.00 | 0.00 | 34 | 1009.7 |
| 20260505165425 | 74 | 274 | 9.6 | 19.1 | 0.00 | 0.00 | 0.00 | 34 | 1009.7 |
| 20260505164924 | 74 | 180 | 7.8 | 18.2 | 0.00 | 0.00 | 0.00 | 35 | 1009.9 |
| 20260505164424 | 74 | 243 | 3.5 | 19.1 | 0.00 | 0.00 | 0.00 | 34 | 1009.7 |
| 20260505163925 | 74 | 236 | 16.5 | 19.1 | 0.00 | 0.00 | 0.00 | 33 | 1009.7 |
| 20260505163423 | 74 | 154 | 6.1 | 19.1 | 0.00 | 0.00 | 0.00 | 34 | 1009.5 |
| 20260505162419 | 73 | 182 | 10.4 | 20.9 | 0.00 | 0.00 | 0.00 | 37 | 1009.8 |
| 20260505161917 | 73 | 251 | 11.3 | 20.9 | 0.00 | 0.00 | 0.00 | 35 | 1009.7 |
| 20260505161418 | 74 | 194 | 6.1 | 20.0 | 0.00 | 0.00 | 0.00 | 37 | 1009.8 |
| 20260505160917 | 73 | 228 | 5.2 | 19.1 | 0.00 | 0.00 | 0.00 | 37 | 1009.4 |
| 20260505152907 | 73 | 182 | 4.3 | 16.5 | 0.00 | 0.00 | 0.00 | 44 | 1009.9 |
| 20260505152406 | 73 | 229 | 3.5 | 16.5 | 0.00 | 0.00 | 0.00 | 40 | 1009.7 |
| 20260505151906 | 73 | 227 | 4.3 | 15.6 | 0.00 | 0.00 | 0.00 | 40 | 1009.9 |
| 20260505151405 | 73 | 182 | 6.1 | 13.0 | 0.00 | 0.00 | 0.00 | 41 | 1010.0 |
| 20260505150903 | 73 | 179 | 6.1 | 13.0 | 0.00 | 0.00 | 0.00 | 39 | 1009.8 |
| 20260505150404 | 73 | 239 | 8.7 | 13.9 | 0.00 | 0.00 | 0.00 | 39 | 1009.8 |
| 20260505140359 | 69 | 255 | 5.2 | 16.5 | 0.00 | 0.00 | 0.00 | 47 | 1010.1 |
| 20260505124845 | 61 | 226 | 5.2 | 13.0 | 0.00 | 0.00 | 0.00 | 59 | 1010.1 |
| 20260505124343 | 61 | 276 | 4.3 | 13.0 | 0.00 | 0.00 | 0.00 | 59 | 1010.2 |
| 20260505123342 | 60 | 268 | 4.3 | 15.6 | 0.00 | 0.00 | 0.00 | 61 | 1010.3 |
| 20260505122842 | 59 | 247 | 8.7 | 13.0 | 0.00 | 0.00 | 0.00 | 62 | 1010.3 |
| 20260505122342 | 59 | 204 | 6.1 | 13.0 | 0.00 | 0.00 | 0.00 | 63 | 1010.1 |
| 20260505121337 | 58 | 234 | 6.1 | 12.2 | 0.00 | 0.00 | 0.00 | 65 | 1010.4 |
| 20260505120336 | 57 | 285 | 5.2 | 14.8 | 0.00 | 0.00 | 0.00 | 67 | 1010.3 |
| 20260505115834 | 56 | 261 | 4.3 | 13.0 | 0.00 | 0.00 | 0.00 | 69 | 1010.4 |